Terug naar catalogus

CZ-2C DEB

ActiefSSO
NORAD 36093·DEBRIS·🇨🇳 China

Gelanceerd Nov 12, 2009 vanaf Jiuquan Satellite Launch Center

Loading…

Volgende Passages (komende 24 uur)

TLE

VersSource: Space-Track

Epoch: Sep 13, 2026, 17:54 UTC

1 36093U 09061F   26256.74623531  .00002097  00000-0  54278-3 0  9996
2 36093  98.1383 338.8535 0114239 188.1526 171.7814 14.47034054879062

Volg CZ-2C DEB in realtime met AllMySat

Download on the App Store